This is the latest recevied weather packets stored in our database for station/object KB4KY. If no packets are shown the sender has not sent any weather packets the latest 10 day(s).
| Time | Temp. | Humidity | Pressure | Rain* | Wind** | Luminosity | Snow |
|---|---|---|---|---|---|---|---|
| 1777894242 | 12.22° C | 78% | 1012.9 hPa | 0 mm | - | - | - |
| 1777893942 | 12.22° C | 79% | 1012.5 hPa | 0 mm | - | - | - |
| 1777893641 | 11.67° C | 79% | 1012.5 hPa | 0 mm | - | - | - |
| 1777893565 | 11.67° C | 80% | 1012.1 hPa | 0 mm | - | - | - |
| 1777893343 | 11.67° C | 80% | 1012.4 hPa | 0 mm | - | - | - |
| 1777893041 | 11.67° C | 80% | 1012.1 hPa | 0 mm | - | - | - |
| 1777892780 | 11.67° C | 81% | 1012 hPa | 0 mm | - | - | - |
| 1777892780 | 11.67° C | 80% | 1011.9 hPa | 0 mm | - | - | - |
| 1777892748 | 11.67° C | 80% | 1011.9 hPa | 0 mm | - | - | - |
| 1777892547 | 11.67° C | 80% | 1012.2 hPa | 0 mm | - | - | - |
| 1777892440 | 11.67° C | 81% | 1012 hPa | 0 mm | - | - | - |
| 1777892180 | 11.67° C | 80% | 1012.2 hPa | 0 mm | - | - | - |
| 1777892142 | 11.67° C | 80% | 1012.2 hPa | 0 mm | - | - | - |
| 1777891841 | 11.67° C | 79% | 1012.1 hPa | 0 mm | - | - | - |
| 1777891540 | 11.67° C | 81% | 1012.3 hPa | 0 mm | - | - | - |
| 1777890339 | 12.22° C | 79% | 1012.5 hPa | 0 mm | - | - | - |
| 1777890040 | 12.22° C | 78% | 1012.7 hPa | 0 mm | - | - | - |
| 1777889737 | 12.22° C | 77% | 1012.7 hPa | 0 mm | - | - | - |
| 1777889442 | 12.78° C | 73% | 1012.7 hPa | 0 mm | - | - | - |
| 1777889137 | 12.78° C | 73% | 1012.7 hPa | 0 mm | - | - | - |
| 1777888840 | 12.78° C | 73% | 1013 hPa | 0 mm | - | - | - |
| 1777888536 | 12.78° C | 73% | 1012.9 hPa | 0 mm | - | - | - |
| 1777888288 | 12.78° C | 72% | 1011.5 hPa | 0 mm | - | - | - |
| 1777888236 | 12.78° C | 71% | 1012.2 hPa | 0 mm | - | - | - |
| 1777887936 | 12.78° C | 71% | 1011.8 hPa | 0 mm | - | - | - |
* Rain latest hour (hover to see other rain measurements)
** Current wind speed in m/s (hover to see current wind gust speed)